DW6448 Weather Reports


time (UTC)temp
C
wind
direction
speed
KPH
gust
KPH
rain 1hr
cm
rain 24hr
cm
rain mn
cm
humidity
%
barometer
mb
20260906090600 19 63 6.4 12.9 0.00 0.00 0.00 93 1015.2
20260906090113 19 32 6.4 11.3 0.00 0.00 0.00 93 1015.1
20260906085557 19 85 3.2 11.3 0.00 0.00 0.00 93 1015.1
20260906085057 19 51 4.8 11.3 0.00 0.00 0.00 93 1015.1
20260906084609 19 70 4.8 9.7 0.00 0.00 0.00 93 1015.2
20260906084058 19 89 4.8 12.9 0.00 0.00 0.00 93 1015.2
20260906083557 19 77 4.8 9.7 0.00 0.00 0.00 93 1015.1
20260906083057 19 47 3.2 9.7 0.00 0.00 0.00 93 1015.1
20260906082557 20 64 4.8 11.3 0.00 0.00 0.00 93 1015.2
20260906082100 20 34 4.8 11.3 0.00 0.00 0.00 94 1015.1
20260906081557 20 90 3.2 9.7 0.00 0.00 0.00 94 1015.1
20260906081055 20 30 3.2 9.7 0.00 0.00 0.00 94 1015.1
20260906080555 20 41 6.4 12.9 0.00 0.00 0.00 94 1015.0
20260906080056 20 33 6.4 12.9 0.00 0.00 0.00 94 1015.0
20260906075553 20 80 1.6 8.0 0.00 0.00 0.00 95 1015.1
20260906075053 20 69 3.2 8.0 0.00 0.00 0.00 95 1015.0
20260906074559 20 69 1.6 12.9 0.00 0.00 0.00 95 1015.0
20260906074154 20 59 4.8 12.9 0.00 0.00 0.00 95 1015.0
20260906073554 20 33 1.6 8.0 0.00 0.00 0.00 95 1015.0
20260906073057 20 55 4.8 9.7 0.00 0.00 0.00 95 1015.0
20260906072555 20 45 3.2 11.3 0.00 0.00 0.00 95 1015.0
20260906072054 20 45 4.8 11.3 0.00 0.00 0.00 95 1015.0
20260906071551 20 41 3.2 8.0 0.00 0.00 0.00 95 1015.0
20260906071051 20 50 0.0 9.7 0.00 0.00 0.00 96 1014.9
20260906070551 20 33 3.2 6.4 0.00 0.00 0.00 96 1015.0
20260906070100 20 72 3.2 6.4 0.00 0.00 0.00 96 1015.0
20260906065553 20 57 1.6 8.0 0.00 0.00 0.00 96 1015.0
20260906065050 20 76 1.6 12.9 0.00 0.00 0.00 96 1015.1
20260906064550 20 47 6.4 12.9 0.00 0.00 0.00 96 1014.9
20260906064050 20 56 4.8 9.7 0.00 0.00 0.00 96 1014.9
20260906063548 20 62 1.6 12.9 0.00 0.00 0.00 96 1014.9
20260906063049 20 31 4.8 12.9 0.00 0.00 0.00 96 1014.9
20260906062549 20 41 1.6 8.0 0.00 0.00 0.00 96 1014.8
20260906062047 20 62 3.2 8.0 0.00 0.00 0.00 96 1014.9
20260906061601 20 62 0.0 4.8 0.00 0.00 0.00 96 1014.9
20260906061047 20 22 1.6 6.4 0.00 0.00 0.00 96 1015.0
20260906060550 20 36 0.0 6.4 0.00 0.00 0.00 96 1015.1
20260906060046 20 24 0.0 0.0 0.00 0.00 0.00 96 1015.1
20260906055546 20 14 0.0 0.0 0.00 0.00 0.00 96 1015.0
20260906055047 20 37 0.0 0.0 0.00 0.00 0.00 96 1015.1
20260906054546 20 9 0.0 0.0 0.00 0.00 0.00 96 1015.0
20260906054045 20 55 0.0 0.0 0.00 0.00 0.00 96 1014.9
20260906053545 20 53 0.0 0.0 0.00 0.00 0.00 96 1014.8
20260906053050 20 43 0.0 0.0 0.00 0.00 0.00 95 1014.8
20260906052543 20 24 0.0 0.0 0.00 0.00 0.00 95 1014.7
20260906052044 20 26 0.0 6.4 0.00 0.00 0.00 95 1014.8
20260906051542 20 26 1.6 6.4 0.00 0.00 0.00 95 1014.7
20260906051043 20 31 0.0 0.0 0.00 0.00 0.00 95 1014.7
20260906050542 20 39 0.0 0.0 0.00 0.00 0.00 95 1014.6
20260906050104 20 14 0.0 0.0 0.00 0.00 0.00 95 1014.7
20260906045542 20 14 0.0 0.0 0.00 0.00 0.00 95 1014.5
20260906045040 20 50 0.0 0.0 0.00 0.00 0.00 95 1014.5
20260906044539 20 37 0.0 0.0 0.00 0.00 0.00 94 1014.4
20260906044039 20 46 0.0 0.0 0.00 0.00 0.00 94 1014.3
20260906043539 20 40 0.0 0.0 0.00 0.00 0.00 94 1014.2
20260906043047 21 49 0.0 0.0 0.00 0.00 0.00 94 1014.2
20260906042539 21 51 0.0 0.0 0.00 0.00 0.00 94 1014.2
20260906042036 21 41 0.0 4.8 0.00 0.00 0.00 94 1014.1
20260906041535 21 70 0.0 4.8 0.00 0.00 0.00 94 1014.2
20260906041035 21 49 0.0 0.0 0.00 0.00 0.00 94 1014.1
20260906040535 21 46 0.0 0.0 0.00 0.00 0.00 94 1014.1
20260906040039 21 53 0.0 6.4 0.00 0.00 0.00 94 1014.1
20260906035533 21 137 0.0 6.4 0.00 0.00 0.00 93 1014.1
20260906035033 21 119 0.0 4.8 0.00 0.00 0.00 94 1014.1
20260906034533 21 126 0.0 4.8 0.00 0.00 0.00 93 1014.1
20260906034032 21 97 0.0 8.0 0.00 0.00 0.00 93 1014.1
20260906033534 21 97 0.0 8.0 0.00 0.00 0.00 93 1014.2
20260906033033 21 78 1.6 6.4 0.00 0.00 0.00 93 1014.2
20260906032531 21 54 3.2 6.4 0.00 0.00 0.00 93 1014.2
20260906032032 21 62 1.6 6.4 0.00 0.00 0.00 93 1014.1
20260906031531 21 97 3.2 6.4 0.00 0.00 0.00 93 1014.0
20260906031030 21 48 1.6 6.4 0.00 0.00 0.00 93 1014.1
20260906030530 21 82 3.2 12.9 0.00 0.00 0.00 93 1014.0
20260906030029 21 99 3.2 12.9 0.00 0.00 0.00 93 1013.9
20260906025529 22 68 3.2 11.3 0.00 0.00 0.00 93 1013.9
20260906025028 22 64 4.8 8.0 0.00 0.00 0.00 93 1013.9
20260906024528 22 62 3.2 9.7 0.00 0.00 0.00 93 1013.9
20260906024027 22 57 4.8 14.5 0.00 0.00 0.00 93 1013.7
20260906023526 22 76 6.4 14.5 0.00 0.00 0.00 93 1013.7
20260906023027 22 9 6.4 16.1 0.00 0.00 0.00 92 1013.5
20260906022525 22 37 6.4 16.1 0.00 0.00 0.00 92 1013.5
20260906022025 22 61 6.4 14.5 0.00 0.00 0.00 92 1013.5
20260906021527 22 4 4.8 14.5 0.00 0.00 0.00 92 1013.5
20260906021024 22 58 6.4 12.9 0.00 0.00 0.00 91 1013.4
20260906020525 22 91 4.8 12.9 0.00 0.00 0.00 91 1013.4
20260906020024 22 76 3.2 14.5 0.00 0.00 0.00 91 1013.3
20260906015524 22 31 4.8 14.5 0.00 0.00 0.00 91 1013.3
20260906015024 22 29 6.4 16.1 0.00 0.00 0.00 91 1013.2
20260906014535 22 29 9.7 16.1 0.00 0.00 0.00 91 1013.2
20260906014021 23 97 4.8 14.5 0.00 0.00 0.00 91 1013.2
20260906013523 23 60 9.7 14.5 0.00 0.00 0.00 91 1013.1
20260906013022 23 80 3.2 17.7 0.00 0.00 0.00 91 1013.1
20260906012527 23 97 4.8 16.1 0.00 0.00 0.00 91 1013.1
20260906012022 23 51 8.0 14.5 0.00 0.00 0.00 90 1012.9
20260906011524 23 78 8.0 19.3 0.00 0.00 0.00 90 1012.9
20260906011022 23 60 9.7 19.3 0.00 0.00 0.00 90 1012.8
20260906010521 23 64 4.8 14.5 0.00 0.00 0.00 90 1012.8
20260906010021 23 61 6.4 14.5 0.00 0.00 0.00 90 1012.8
20260906005520 23 37 6.4 17.7 0.00 0.00 0.00 89 1012.8
20260906005021 24 82 4.8 17.7 0.00 0.00 0.00 89 1012.6
20260906004520 24 56 4.8 12.9 0.00 0.00 0.00 89 1012.4
20260906004020 24 62 6.4 16.1 0.00 0.00 0.00 89 1012.2
20260906003520 24 58 6.4 16.1 0.00 0.00 0.00 88 1012.0
20260906003020 24 32 9.7 19.3 0.00 0.00 0.00 88 1011.9
20260906002519 25 72 6.4 19.3 0.00 0.00 0.00 88 1012.0
20260906002021 25 51 6.4 14.5 0.00 0.00 0.00 88 1011.9
20260906001520 25 51 4.8 14.5 0.00 0.00 0.00 88 1011.9
20260906001019 25 59 4.8 14.5 0.00 0.00 0.00 87 1011.9
20260906000519 25 65 6.4 14.5 0.00 0.00 0.00 87 1011.9
20260906000020 25 72 8.0 16.1 0.00 0.00 0.00 87 1011.9
20260905235520 25 108 4.8 14.5 0.00 0.00 0.00 86 1011.9
20260905235019 25 80 6.4 20.9 0.00 0.00 0.00 86 1011.9
20260905234519 25 85 8.0 20.9 0.00 0.00 0.00 85 1011.9
20260905234019 26 70 6.4 20.9 0.00 0.00 0.00 85 1011.8
20260905233518 26 55 8.0 17.7 0.00 0.00 0.00 84 1011.8
20260905233019 26 91 8.0 19.3 0.00 0.00 0.00 84 1011.8
20260905232518 26 87 6.4 19.3 0.00 0.00 0.00 84 1011.7
20260905232019 27 83 11.3 17.7 0.00 0.00 0.00 85 1011.5
20260905231518 27 80 6.4 16.1 0.00 0.00 0.00 85 1011.3
20260905231019 27 53 6.4 12.9 0.00 0.00 0.00 84 1011.3
20260905230518 27 86 4.8 9.7 0.00 0.00 0.00 84 1011.3
20260905230018 27 64 3.2 12.9 0.00 0.00 0.00 84 1011.3
20260905225517 27 98 6.4 14.5 0.00 0.00 0.00 83 1011.3
20260905225017 27 58 6.4 16.1 0.00 0.00 0.00 82 1011.2
20260905224517 27 39 9.7 14.5 0.00 0.00 0.00 80 1011.2
20260905224017 27 78 3.2 16.1 0.00 0.00 0.00 79 1011.2
20260905223522 28 89 6.4 17.7 0.00 0.00 0.00 78 1011.1
20260905223021 28 58 9.7 17.7 0.00 0.00 0.00 77 1011.0
20260905222519 28 35 3.2 8.0 0.00 0.00 0.00 78 1010.7
20260905222016 28 352 4.8 8.0 0.00 0.00 0.00 77 1010.8
20260905221516 28 14 3.2 9.7 0.00 0.00 0.00 77 1010.8
20260905221019 28 9 3.2 9.7 0.00 0.00 0.00 76 1010.7
20260905220520 29 14 3.2 9.7 0.00 0.00 0.00 77 1010.6
20260905220016 29 4 6.4 12.9 0.00 0.00 0.00 76 1010.6
20260905215516 29 51 8.0 12.9 0.00 0.00 0.00 75 1010.6
20260905215019 29 4 4.8 12.9 0.00 0.00 0.00 76 1010.6
20260905214515 30 23 4.8 9.7 0.00 0.00 0.00 76 1010.5
20260905214016 29 356 4.8 9.7 0.00 0.00 0.00 76 1010.4
20260905213515 29 9 6.4 11.3 0.00 0.00 0.00 76 1010.4
20260905213014 29 355 4.8 11.3 0.00 0.00 0.00 77 1010.4
20260905212514 29 345 6.4 11.3 0.00 0.00 0.00 76 1010.3
20260905212013 29 358 6.4 8.0 0.00 0.00 0.00 77 1010.4
20260905211513 29 342 3.2 11.3 0.00 0.00 0.00 79 1010.4
20260905211015 29 347 6.4 11.3 0.00 0.00 0.00 78 1010.4
20260905210513 29 31 6.4 11.3 0.00 0.00 0.00 77 1010.5
20260905210013 29 9 8.0 14.5 0.00 0.00 0.00 77 1010.6
20260905205512 29 340 8.0 14.5 0.00 0.00 0.00 78 1010.7
20260905205013 29 355 6.4 12.9 0.00 0.00 0.00 77 1010.7
20260905204512 29 14 6.4 12.9 0.00 0.00 0.00 78 1010.8
20260905204013 29 14 8.0 12.9 0.00 0.00 0.00 77 1010.8
20260905203514 29 28 6.4 14.5 0.00 0.00 0.00 77 1010.9
20260905203012 29 51 8.0 14.5 0.00 0.00 0.00 78 1010.9
20260905202513 28 337 6.4 14.5 0.00 0.00 0.00 79 1010.9
20260905202011 28 46 6.4 14.5 0.00 0.00 0.00 80 1011.1
20260905201515 28 4 6.4 14.5 0.00 0.00 0.00 79 1011.1
20260905201010 29 342 8.0 14.5 0.00 0.00 0.00 78 1011.1
20260905200510 29 352 6.4 12.9 0.00 0.00 0.00 79 1011.2
20260905200011 29 337 6.4 11.3 0.00 0.00 0.00 79 1011.2
20260905195511 29 352 1.6 8.0 0.00 0.00 0.00 79 1011.3
20260905195013 29 355 1.6 9.7 0.00 0.00 0.00 78 1011.2
20260905194511 29 22 6.4 9.7 0.00 0.00 0.00 78 1011.3
20260905194011 29 335 3.2 9.7 0.00 0.00 0.00 78 1011.2
20260905193510 29 18 4.8 9.7 0.00 0.00 0.00 78 1011.3
20260905193011 29 344 6.4 12.9 0.00 0.00 0.00 78 1011.4
20260905192514 29 340 8.0 12.9 0.00 0.00 0.00 79 1011.4
20260905192009 29 55 6.4 11.3 0.00 0.00 0.00 78 1011.4
20260905191512 28 37 6.4 9.7 0.00 0.00 0.00 79 1011.5
20260905191008 29 43 4.8 9.7 0.00 0.00 0.00 77 1011.6
20260905190508 29 234 4.8 9.7 0.00 0.00 0.00 77 1011.7
20260905190021 29 306 1.6 11.3 0.00 0.00 0.00 77 1011.8
20260905185507 29 337 3.2 11.3 0.00 0.00 0.00 76 1011.8
20260905185007 29 213 1.6 14.5 0.00 0.00 0.00 76 1011.6
20260905184508 29 272 4.8 14.5 0.00 0.00 0.00 77 1011.9
20260905184007 29 357 3.2 11.3 0.00 0.00 0.00 76 1011.9
20260905183507 29 310 4.8 9.7 0.00 0.00 0.00 77 1011.9
20260905183010 28 4 3.2 8.0 0.00 0.00 0.00 77 1011.8
20260905182507 28 319 1.6 8.0 0.00 0.00 0.00 76 1012.0
20260905182007 28 305 3.2 8.0 0.00 0.00 0.00 78 1011.9
20260905181511 28 326 4.8 8.0 0.00 0.00 0.00 77 1012.1
20260905181006 28 293 4.8 9.7 0.00 0.00 0.00 76 1012.1
20260905180507 28 293 4.8 9.7 0.00 0.00 0.00 75 1012.1
20260905180005 28 287 3.2 8.0 0.00 0.00 0.00 75 1012.1
20260905175508 28 230 1.6 8.0 0.00 0.00 0.00 75 1012.2
20260905175006 28 299 0.0 11.3 0.00 0.00 0.00 75 1012.2
20260905174504 28 203 6.4 11.3 0.00 0.00 0.00 75 1012.3
20260905174003 28 286 4.8 11.3 0.00 0.00 0.00 76 1012.3
20260905173503 28 205 6.4 11.3 0.00 0.00 0.00 74 1012.3
20260905173003 28 209 8.0 11.3 0.00 0.00 0.00 75 1012.3
20260905172502 28 249 6.4 12.9 0.00 0.00 0.00 75 1012.3
20260905172002 28 221 4.8 17.7 0.00 0.00 0.00 75 1012.4
20260905171605 28 144 3.2 17.7 0.00 0.00 0.00 77 1012.4
20260905171100 28 216 9.7 14.5 0.00 0.00 0.00 76 1012.4
20260905170558 28 203 8.0 12.9 0.00 0.00 0.00 78 1012.5
20260905170057 27 214 4.8 14.5 0.00 0.00 0.00 78 1012.7
20260905165600 27 214 8.0 14.5 0.00 0.00 0.00 79 1012.8
20260905165054 27 194 6.4 14.5 0.00 0.00 0.00 78 1012.7
20260905164602 27 164 6.4 14.5 0.00 0.00 0.00 77 1012.9
20260905164055 27 206 1.6 9.7 0.00 0.00 0.00 78 1012.9
20260905163552 27 208 4.8 11.3 0.00 0.00 0.00 80 1012.9
20260905163052 27 232 3.2 11.3 0.00 0.00 0.00 78 1013.0
20260905162550 26 173 1.6 8.0 0.00 0.00 0.00 80 1013.1
20260905162048 26 188 1.6 4.8 0.00 0.00 0.00 80 1013.0
20260905161547 26 159 1.6 4.8 0.00 0.00 0.00 80 1013.1
20260905161047 26 184 0.0 6.4 0.00 0.00 0.00 81 1013.3
20260905160545 26 232 1.6 9.7 0.00 0.00 0.00 81 1013.2
20260905160044 26 226 4.8 11.3 0.00 0.00 0.00 82 1013.1
20260905155543 26 172 4.8 11.3 0.00 0.00 0.00 83 1013.0
20260905155041 25 211 4.8 19.3 0.00 0.00 0.00 85 1012.9
20260905154542 25 217 9.7 19.3 0.00 0.00 0.00 86 1012.9
20260905154039 25 200 9.7 19.3 0.00 0.00 0.00 88 1012.9
20260905153538 24 180 4.8 14.5 0.00 0.00 0.00 88 1012.8
20260905153051 24 207 4.8 11.3 0.00 0.00 0.00 89 1012.7
20260905152537 24 169 4.8 11.3 0.00 0.00 0.00 89 1012.7
20260905152036 23 202 1.6 12.9 0.00 0.00 0.00 89 1012.7
20260905151541 23 182 3.2 17.7 0.00 0.00 0.00 89 1012.7
20260905151036 23 164 4.8 17.7 0.00 0.00 0.00 89 1012.8
20260905150535 23 154 3.2 11.3 0.00 0.00 0.00 90 1012.8
20260905150035 23 174 1.6 8.0 0.00 0.00 0.00 91 1012.8
20260905145534 23 170 1.6 6.4 0.00 0.00 0.00 91 1012.9
20260905145032 23 169 0.0 4.8 0.00 0.00 0.00 90 1013.0
20260905144532 23 153 0.0 6.4 0.00 0.00 0.00 90 1012.9
20260905144031 23 170 1.6 6.4 0.00 0.00 0.00 90 1012.8
20260905143532 23 169 1.6 6.4 0.00 0.00 0.00 91 1012.8
20260905143037 23 164 0.0 6.4 0.00 0.00 0.00 90 1013.0
20260905142532 23 164 1.6 6.4 0.00 0.00 0.00 91 1012.9
20260905142030 23 132 1.6 4.8 0.00 0.00 0.00 91 1012.8
20260905141530 22 206 0.0 4.8 0.00 0.00 0.00 92 1012.8
20260905141029 22 172 1.6 6.4 0.00 0.00 0.00 92 1012.8
20260905140532 22 201 1.6 6.4 0.00 0.00 0.00 92 1012.8
20260905140028 22 192 1.6 6.4 0.00 0.00 0.00 93 1012.8
20260905135527 22 175 0.0 4.8 0.00 0.00 0.00 94 1012.7
20260905135026 22 168 0.0 4.8 0.00 0.00 0.00 94 1012.6
20260905134526 22 170 0.0 9.7 0.00 0.00 0.00 94 1012.6
20260905134026 21 151 4.8 9.7 0.00 0.00 0.00 93 1012.6
20260905133526 21 153 0.0 11.3 0.00 0.00 0.00 93 1012.5
20260905133031 21 166 3.2 6.4 0.00 0.00 0.00 93 1012.6
20260905132524 21 177 1.6 6.4 0.00 0.00 0.00 94 1012.4
20260905132024 21 154 1.6 6.4 0.00 0.00 0.00 93 1012.4
20260905131532 21 162 1.6 6.4 0.00 0.00 0.00 94 1012.4
20260905131024 21 178 0.0 6.4 0.00 0.00 0.00 94 1012.5
20260905130522 21 155 0.0 6.4 0.00 0.00 0.00 94 1012.4
20260905130035 21 198 1.6 14.5 0.00 0.00 0.00 94 1012.2
20260905125522 21 164 3.2 11.3 0.00 0.00 0.00 94 1011.9
20260905125022 21 176 3.2 12.9 0.00 0.00 0.00 94 1011.7
20260905124522 21 203 3.2 11.3 0.00 0.00 0.00 95 1011.7
20260905124020 21 195 4.8 19.3 0.00 0.00 0.00 95 1012.0
20260905123521 21 153 4.8 19.3 0.00 0.00 0.00 95 1011.9
20260905123020 21 207 4.8 16.1 0.00 0.00 0.00 95 1012.0
20260905122523 21 199 4.8 14.5 0.00 0.00 0.00 95 1012.0
20260905122020 21 179 3.2 11.3 0.00 0.00 0.00 95 1012.0
20260905121519 21 181 0.0 11.3 0.00 0.00 0.00 95 1012.2
20260905121019 21 208 1.6 8.0 0.00 0.00 0.00 95 1012.1
20260905120522 20 205 0.0 8.0 0.00 0.00 0.00 95 1012.2
20260905120017 20 156 0.0 8.0 0.00 0.00 0.00 95 1012.2
20260905115517 20 168 1.6 9.7 0.00 0.00 0.00 95 1012.2
20260905115017 20 166 3.2 14.5 0.00 0.00 0.00 95 1012.1
20260905114514 20 172 3.2 11.3 0.00 0.00 0.00 95 1012.1
20260905114013 20 189 1.6 9.7 0.00 0.00 0.00 95 1012.1
20260905113514 20 163 4.8 9.7 0.00 0.00 0.00 95 1012.0
20260905113016 20 193 3.2 14.5 0.00 0.00 0.00 95 1012.1
20260905112515 20 168 4.8 14.5 0.00 0.00 0.00 94 1012.1
20260905112016 20 166 1.6 8.0 0.00 0.00 0.00 94 1012.1
20260905111513 20 195 3.2 9.7 0.00 0.00 0.00 94 1012.1
20260905111014 20 157 3.2 9.7 0.00 0.00 0.00 94 1012.0
20260905110513 20 180 3.2 6.4 0.00 0.00 0.00 94 1012.0
20260905110012 20 163 1.6 6.4 0.00 0.00 0.00 94 1011.9
20260905105512 20 164 1.6 6.4 0.00 0.00 0.00 94 1011.9
20260905105012 20 197 1.6 11.3 0.00 0.00 0.00 94 1011.9
20260905104511 20 151 1.6 11.3 0.00 0.00 0.00 93 1012.0
20260905104011 20 134 1.6 9.7 0.00 0.00 0.00 93 1012.1
20260905103511 21 170 1.6 16.1 0.00 0.00 0.00 93 1012.0
20260905103016 21 145 3.2 12.9 0.00 0.00 0.00 94 1012.1
20260905102510 21 147 6.4 12.9 0.00 0.00 0.00 94 1012.1
20260905102011 21 141 6.4 14.5 0.00 0.00 0.00 94 1012.1
20260905101510 21 136 8.0 17.7 0.00 0.00 0.00 94 1012.2
20260905101009 21 151 4.8 17.7 0.00 0.00 0.00 94 1012.2
20260905100509 21 139 6.4 17.7 0.00 0.00 0.00 94 1012.3
20260905100012 21 122 4.8 17.7 0.00 0.00 0.00 94 1012.2
20260905095507 21 116 6.4 12.9 0.00 0.00 0.00 94 1012.3
20260905095006 21 147 6.4 14.5 0.00 0.00 0.00 94 1012.1
20260905094506 21 144 6.4 16.1 0.00 0.00 0.00 95 1012.2
20260905094002 21 130 8.0 16.1 0.00 0.00 0.00 95 1012.0
20260905093502 22 134 6.4 17.7 0.00 0.00 0.00 95 1012.1
20260905093001 22 118 6.4 22.5 0.00 0.00 0.00 95 1012.1
20260905092559 22 99 11.3 22.5 0.00 0.00 0.00 95 1011.9
20260905092059 22 120 9.7 20.9 0.00 0.00 0.00 96 1011.8
20260905091559 23 105 9.7 22.5 0.00 0.00 0.00 96 1011.9
20260905091059 23 120 6.4 17.7 0.00 0.00 0.00 97 1011.9